Retour au catalogue

CZ-6A DEB

ActifPO
NORAD 60840·DEBRIS·🇨🇳 China

Lancé Aug 6, 2024 depuis Taiyuan Satellite Launch Center

Loading…

Prochains Passages (prochaines 24 heures)

TLE

FraisSource: Space-Track

Époque: Sep 14, 2026, 10:01 UTC

1 60840U 24140HT  26257.41790319  .00003346  00000-0  44139-3 0  9995
2 60840  88.9842 256.2238 0113552 239.2839 119.7157 14.75380977111948

Suivez CZ-6A DEB en temps réel avec AllMySat

Download on the App Store